View from above orbital plane
|
View from above satellite
|
Ground track
|
The orbit data is extracted from the following two-line orbital elements,
1 28480U 04046B 13168.16880534 .00000059 00000-0 38020-4 0 880
2 28480 098.0556 348.1727 0142498 221.6961 270.8050 14.25123302446092
| Epoch (UTC): | 17 June 2013 04:03:04 |
| Eccentricity: | 0.0142498 |
| inclination: | 98.0556° |
| perigee height: | 705 km |
| apogee height: | 910 km |
| right ascension of ascending node: | 348.1727° |
| argument of perigee: | 221.6961° |
| revolutions per day: | 14.25123302 |
| mean anomaly at epoch: | 270.8050° |
| orbit number at epoch: | 44609 |
The dashed part of the orbit path shows where the satellite is in the earth's shadow,
|
|